| time (UTC) | temp F | wind direction | speed MPH | gust MPH | rain 1hr in | rain 24hr in | rain mn in | humidity % | barometer mb |
| 20260510221116 | 90 | 357 | 9.0 | 17.0 | 0.00 | 0.00 | 0.00 | 59 | 1014.3 |
| 20260510220117 | 90 | 10 | 9.0 | 18.0 | 0.00 | 0.00 | 0.00 | 58 | 1014.3 |
| 20260510215115 | 91 | 297 | 7.0 | 13.0 | 0.00 | 0.00 | 0.00 | 60 | 1014.2 |
| 20260510214113 | 91 | 350 | 10.0 | 17.0 | 0.00 | 0.00 | 0.00 | 59 | 1014.2 |
| 20260510213117 | 89 | 5 | 8.0 | 14.0 | 0.00 | 0.00 | 0.00 | 61 | 1014.3 |
| 20260510212548 | 88 | 346 | 11.0 | 18.0 | 0.00 | 0.00 | 0.00 | 62 | 1014.3 |
| 20260510211113 | 89 | 335 | 10.0 | 21.0 | 0.00 | 0.00 | 0.00 | 59 | 1014.4 |
| 20260510210118 | 91 | 352 | 9.0 | 20.0 | 0.00 | 0.00 | 0.00 | 57 | 1014.4 |
| 20260510204048 | 96 | 289 | 5.0 | 12.0 | 0.00 | 0.00 | 0.00 | 48 | 1014.2 |
| 20260510203047 | 96 | 236 | 3.0 | 8.0 | 0.00 | 0.00 | 0.00 | 50 | 1014.3 |
| 20260510202526 | 94 | 286 | 5.0 | 11.0 | 0.00 | 0.00 | 0.00 | 50 | 1014.3 |
| 20260510201045 | 95 | 310 | 5.0 | 11.0 | 0.00 | 0.00 | 0.00 | 50 | 1014.3 |
| 20260510200528 | 94 | 252 | 4.0 | 10.0 | 0.00 | 0.00 | 0.00 | 50 | 1014.3 |
| 20260510195046 | 96 | 264 | 4.0 | 9.0 | 0.00 | 0.00 | 0.00 | 48 | 1014.3 |
| 20260510194046 | 95 | 271 | 5.0 | 13.0 | 0.00 | 0.00 | 0.00 | 49 | 1014.3 |
| 20260510193047 | 94 | 275 | 3.0 | 8.0 | 0.00 | 0.00 | 0.00 | 51 | 1014.4 |
| 20260510192047 | 94 | 296 | 4.0 | 8.0 | 0.00 | 0.00 | 0.00 | 51 | 1014.5 |
| 20260510191046 | 94 | 270 | 5.0 | 11.0 | 0.00 | 0.00 | 0.00 | 51 | 1014.6 |
| 20260510190047 | 96 | 270 | 5.0 | 11.0 | 0.00 | 0.00 | 0.00 | 48 | 1014.6 |
| 20260510185045 | 95 | 333 | 3.0 | 10.0 | 0.00 | 0.00 | 0.00 | 50 | 1014.7 |
| 20260510184043 | 94 | 235 | 3.0 | 9.0 | 0.00 | 0.00 | 0.00 | 50 | 1014.8 |
| 20260510183519 | 94 | 331 | 4.0 | 10.0 | 0.00 | 0.00 | 0.00 | 51 | 1015.0 |
| 20260510182043 | 94 | 194 | 5.0 | 11.0 | 0.00 | 0.00 | 0.00 | 50 | 1015.1 |
| 20260510181047 | 94 | 231 | 4.0 | 11.0 | 0.00 | 0.00 | 0.00 | 50 | 1015.2 |
| 20260510180528 | 95 | 250 | 5.0 | 13.0 | 0.00 | 0.00 | 0.00 | 49 | 1015.4 |
| 20260510175042 | 95 | 298 | 3.0 | 12.0 | 0.00 | 0.00 | 0.00 | 48 | 1015.6 |
| 20260510174042 | 94 | 201 | 4.0 | 11.0 | 0.00 | 0.00 | 0.00 | 49 | 1015.7 |
| 20260510173043 | 95 | 196 | 4.0 | 10.0 | 0.00 | 0.00 | 0.00 | 50 | 1015.9 |
| 20260510172519 | 94 | 254 | 3.0 | 9.0 | 0.00 | 0.00 | 0.00 | 50 | 1015.9 |
| 20260510171513 | 94 | 277 | 5.0 | 11.0 | 0.00 | 0.00 | 0.00 | 49 | 1016.0 |
| 20260510170511 | 91 | 223 | 4.0 | 11.0 | 0.00 | 0.00 | 0.00 | 52 | 1016.2 |
| 20260510165035 | 92 | 231 | 5.0 | 11.0 | 0.00 | 0.00 | 0.00 | 52 | 1016.4 |
| 20260510164523 | 91 | 271 | 4.0 | 11.0 | 0.00 | 0.00 | 0.00 | 53 | 1016.4 |
| 20260510163035 | 91 | 221 | 5.0 | 10.0 | 0.00 | 0.00 | 0.00 | 52 | 1016.6 |
| 20260510162033 | 92 | 237 | 5.0 | 10.0 | 0.00 | 0.00 | 0.00 | 52 | 1016.6 |
| 20260510161031 | 92 | 244 | 4.0 | 11.0 | 0.00 | 0.00 | 0.00 | 52 | 1016.6 |
| 20260510160033 | 91 | 235 | 5.0 | 14.0 | 0.00 | 0.00 | 0.00 | 51 | 1016.7 |
| 20260510155030 | 91 | 188 | 5.0 | 11.0 | 0.00 | 0.00 | 0.00 | 52 | 1016.6 |
| 20260510154029 | 90 | 163 | 5.0 | 11.0 | 0.00 | 0.00 | 0.00 | 51 | 1016.7 |
| 20260510153031 | 89 | 242 | 5.0 | 11.0 | 0.00 | 0.00 | 0.00 | 53 | 1016.7 |
| 20260510152031 | 89 | 239 | 5.0 | 11.0 | 0.00 | 0.00 | 0.00 | 57 | 1016.8 |
| 20260510151027 | 89 | 221 | 5.0 | 9.0 | 0.00 | 0.00 | 0.00 | 58 | 1016.8 |
| 20260510150027 | 87 | 243 | 4.0 | 12.0 | 0.00 | 0.00 | 0.00 | 61 | 1016.6 |
| 20260510145023 | 86 | 236 | 4.0 | 9.0 | 0.00 | 0.00 | 0.00 | 67 | 1016.6 |
| 20260510144018 | 85 | 244 | 4.0 | 9.0 | 0.00 | 0.00 | 0.00 | 72 | 1016.5 |
| 20260510143013 | 85 | 231 | 4.0 | 10.0 | 0.00 | 0.00 | 0.00 | 73 | 1016.6 |
| 20260510142009 | 84 | 189 | 3.0 | 9.0 | 0.00 | 0.00 | 0.00 | 75 | 1016.5 |
| 20260510141008 | 84 | 185 | 3.0 | 7.0 | 0.00 | 0.00 | 0.00 | 76 | 1016.5 |
| 20260510140008 | 83 | 224 | 3.0 | 6.0 | 0.00 | 0.00 | 0.00 | 79 | 1016.6 |
| 20260510135008 | 82 | 183 | 3.0 | 6.0 | 0.00 | 0.00 | 0.00 | 80 | 1016.6 |
| 20260510134008 | 81 | 199 | 3.0 | 6.0 | 0.00 | 0.00 | 0.00 | 81 | 1016.5 |
| 20260510133005 | 80 | 239 | 2.0 | 7.0 | 0.00 | 0.00 | 0.00 | 84 | 1016.4 |
| 20260510132447 | 79 | 229 | 2.0 | 4.0 | 0.00 | 0.00 | 0.00 | 85 | 1016.4 |
| 20260510131006 | 79 | 252 | 2.0 | 4.0 | 0.00 | 0.00 | 0.00 | 86 | 1016.3 |
| 20260510130454 | 78 | 317 | 0.0 | 2.0 | 0.00 | 0.00 | 0.00 | 88 | 1016.4 |
| 20260510125436 | 77 | 318 | 0.0 | 1.0 | 0.00 | 0.00 | 0.00 | 90 | 1016.3 |
| 20260510123958 | 77 | 318 | 0.0 | 1.0 | 0.00 | 0.00 | 0.00 | 91 | 1016.3 |
| 20260510122953 | 76 | 317 | 0.0 | 0.0 | 0.00 | 0.00 | 0.00 | 92 | 1016.2 |
| 20260510121945 | 75 | 318 | 0.0 | 0.0 | 0.00 | 0.00 | 0.00 | 93 | 1016.1 |
| 20260510120948 | 75 | 318 | 0.0 | 0.0 | 0.00 | 0.00 | 0.00 | 93 | 1015.9 |
| 20260510115942 | 75 | 321 | 0.0 | 0.0 | 0.00 | 0.00 | 0.00 | 94 | 1015.9 |
| 20260510114940 | 74 | 321 | 0.0 | 1.0 | 0.00 | 0.00 | 0.00 | 94 | 1015.8 |
| 20260510113935 | 74 | 320 | 1.0 | 2.0 | 0.00 | 0.00 | 0.00 | 94 | 1015.6 |
| 20260510112934 | 73 | 321 | 2.0 | 5.0 | 0.00 | 0.00 | 0.00 | 94 | 1015.3 |
| 20260510112420 | 73 | 254 | 1.0 | 3.0 | 0.00 | 0.00 | 0.00 | 94 | 1015.0 |
| 20260510110931 | 73 | 186 | 0.0 | 1.0 | 0.00 | 0.00 | 0.00 | 94 | 1014.7 |
| 20260510105922 | 73 | 187 | 2.0 | 5.0 | 0.00 | 0.00 | 0.00 | 94 | 1014.4 |
| 20260510104915 | 73 | 175 | 0.0 | 1.0 | 0.00 | 0.00 | 0.00 | 94 | 1014.4 |
| 20260510104835 | 73 | 174 | 0.0 | 2.0 | 0.00 | 0.00 | 0.00 | 94 | 1014.2 |
| 20260510103355 | 73 | 175 | 1.0 | 4.0 | 0.00 | 0.00 | 0.00 | 94 | 1013.8 |
| 20260510101915 | 73 | 174 | 0.0 | 0.0 | 0.00 | 0.00 | 0.00 | 94 | 1013.8 |
| 20260510101837 | 73 | 175 | 0.0 | 1.0 | 0.00 | 0.00 | 0.00 | 93 | 1013.8 |
| 20260510100833 | 73 | 175 | 0.0 | 0.0 | 0.00 | 0.00 | 0.00 | 93 | 1013.8 |
| 20260510094905 | 74 | 175 | 0.0 | 0.0 | 0.00 | 0.00 | 0.00 | 94 | 1013.7 |
| 20260510093906 | 74 | 175 | 0.0 | 0.0 | 0.00 | 0.00 | 0.00 | 93 | 1013.6 |
| 20260510092905 | 74 | 175 | 0.0 | 0.0 | 0.00 | 0.00 | 0.00 | 93 | 1013.6 |
| 20260510091906 | 74 | 175 | 1.0 | 4.0 | 0.00 | 0.00 | 0.00 | 94 | 1013.6 |
| 20260510090906 | 74 | 175 | 1.0 | 4.0 | 0.00 | 0.00 | 0.00 | 93 | 1013.5 |
| 20260510085858 | 74 | 175 | 1.0 | 4.0 | 0.00 | 0.00 | 0.00 | 93 | 1013.4 |
| 20260510084855 | 74 | 175 | 0.0 | 2.0 | 0.00 | 0.00 | 0.00 | 93 | 1013.4 |
| 20260510083855 | 74 | 175 | 1.0 | 5.0 | 0.00 | 0.00 | 0.00 | 93 | 1013.6 |
| 20260510082855 | 74 | 175 | 2.0 | 5.0 | 0.00 | 0.00 | 0.00 | 93 | 1013.6 |
| 20260510082353 | 73 | 151 | 2.0 | 3.0 | 0.00 | 0.00 | 0.00 | 93 | 1013.6 |
| 20260510080840 | 72 | 38 | 0.0 | 3.0 | 0.00 | 0.00 | 0.00 | 92 | 1013.7 |
| 20260510075840 | 72 | 38 | 0.0 | 1.0 | 0.00 | 0.00 | 0.00 | 92 | 1013.9 |
| 20260510074841 | 73 | 38 | 0.0 | 0.0 | 0.00 | 0.00 | 0.00 | 91 | 1014.1 |
| 20260510073842 | 73 | 38 | 0.0 | 0.0 | 0.00 | 0.00 | 0.00 | 91 | 1014.0 |
| 20260510072841 | 73 | 38 | 0.0 | 0.0 | 0.00 | 0.00 | 0.00 | 91 | 1014.0 |
| 20260510071838 | 73 | 38 | 0.0 | 2.0 | 0.00 | 0.00 | 0.00 | 90 | 1014.0 |
| 20260510070835 | 74 | 38 | 0.0 | 0.0 | 0.00 | 0.00 | 0.00 | 90 | 1014.0 |
| 20260510065838 | 74 | 38 | 0.0 | 1.0 | 0.00 | 0.00 | 0.00 | 90 | 1014.0 |
| 20260510064834 | 74 | 38 | 0.0 | 1.0 | 0.00 | 0.00 | 0.00 | 90 | 1014.0 |
| 20260510063835 | 74 | 38 | 0.0 | 1.0 | 0.00 | 0.00 | 0.00 | 89 | 1014.0 |
| 20260510062827 | 74 | 38 | 0.0 | 1.0 | 0.00 | 0.00 | 0.00 | 89 | 1014.1 |
| 20260510061826 | 74 | 38 | 0.0 | 0.0 | 0.00 | 0.00 | 0.00 | 89 | 1014.2 |
| 20260510060827 | 74 | 38 | 0.0 | 2.0 | 0.00 | 0.00 | 0.00 | 89 | 1014.4 |
| 20260510055826 | 74 | 38 | 0.0 | 0.0 | 0.00 | 0.00 | 0.00 | 90 | 1014.5 |
| 20260510054826 | 74 | 38 | 0.0 | 0.0 | 0.00 | 0.00 | 0.00 | 89 | 1014.7 |
| 20260510053828 | 74 | 38 | 0.0 | 0.0 | 0.00 | 0.00 | 0.00 | 89 | 1014.7 |
| 20260510052826 | 74 | 38 | 0.0 | 0.0 | 0.00 | 0.00 | 0.00 | 89 | 1014.7 |
| 20260510051815 | 75 | 38 | 0.0 | 1.0 | 0.00 | 0.00 | 0.00 | 88 | 1014.6 |
| 20260510050814 | 75 | 38 | 0.0 | 1.0 | 0.00 | 0.00 | 0.00 | 87 | 1014.8 |
| 20260510045816 | 75 | 38 | 0.0 | 0.0 | 0.00 | 0.00 | 0.00 | 88 | 1014.9 |
| 20260510044814 | 75 | 38 | 0.0 | 0.0 | 0.00 | 0.00 | 0.00 | 87 | 1015.0 |
| 20260510043813 | 76 | 38 | 0.0 | 0.0 | 0.00 | 0.00 | 0.00 | 87 | 1014.9 |
| 20260510042812 | 76 | 38 | 0.0 | 1.0 | 0.00 | 0.00 | 0.00 | 85 | 1015.1 |
| 20260510041811 | 77 | 38 | 2.0 | 4.0 | 0.00 | 0.00 | 0.00 | 85 | 1015.0 |
| 20260510040812 | 77 | 27 | 1.0 | 3.0 | 0.00 | 0.00 | 0.00 | 84 | 1015.1 |
| 20260510035812 | 76 | 27 | 0.0 | 1.0 | 0.00 | 0.00 | 0.00 | 86 | 1015.1 |
| 20260510034815 | 76 | 27 | 0.0 | 1.0 | 0.00 | 0.00 | 0.00 | 85 | 1015.2 |
| 20260510033804 | 76 | 27 | 0.0 | 0.0 | 0.00 | 0.00 | 0.00 | 85 | 1015.0 |
| 20260510032802 | 77 | 27 | 0.0 | 0.0 | 0.00 | 0.00 | 0.00 | 83 | 1015.1 |
| 20260510031805 | 78 | 27 | 1.0 | 2.0 | 0.00 | 0.00 | 0.00 | 83 | 1015.0 |
| 20260510030802 | 78 | 27 | 1.0 | 3.0 | 0.00 | 0.00 | 0.00 | 82 | 1015.0 |
| 20260510025803 | 78 | 27 | 2.0 | 3.0 | 0.00 | 0.00 | 0.00 | 81 | 1015.0 |
| 20260510024753 | 79 | 23 | 2.0 | 3.0 | 0.00 | 0.00 | 0.00 | 81 | 1014.9 |
| 20260510023752 | 79 | 23 | 1.0 | 3.0 | 0.00 | 0.00 | 0.00 | 80 | 1014.8 |
| 20260510022753 | 79 | 23 | 1.0 | 4.0 | 0.00 | 0.00 | 0.00 | 80 | 1014.7 |
| 20260510021754 | 80 | 23 | 3.0 | 6.0 | 0.00 | 0.00 | 0.00 | 79 | 1014.6 |
| 20260510020751 | 80 | 15 | 3.0 | 5.0 | 0.00 | 0.00 | 0.00 | 78 | 1014.6 |
| 20260510015751 | 80 | 10 | 4.0 | 8.0 | 0.00 | 0.00 | 0.00 | 77 | 1014.5 |
| 20260510015229 | 81 | 22 | 4.0 | 10.0 | 0.00 | 0.00 | 0.00 | 76 | 1014.4 |
| 20260510013749 | 81 | 15 | 6.0 | 12.0 | 0.00 | 0.00 | 0.00 | 76 | 1014.2 |
| 20260510012752 | 82 | 337 | 5.0 | 11.0 | 0.00 | 0.00 | 0.00 | 75 | 1014.1 |
| 20260510011734 | 83 | 23 | 5.0 | 10.0 | 0.00 | 0.00 | 0.00 | 74 | 1013.8 |
| 20260510011218 | 83 | 20 | 7.0 | 15.0 | 0.00 | 0.00 | 0.00 | 73 | 1013.6 |
| 20260510010214 | 83 | 23 | 7.0 | 12.0 | 0.00 | 0.00 | 0.00 | 72 | 1013.3 |
| 20260510004736 | 84 | 334 | 7.0 | 15.0 | 0.00 | 0.00 | 0.00 | 69 | 1013.1 |
| 20260510003730 | 85 | 37 | 5.0 | 14.0 | 0.00 | 0.00 | 0.00 | 65 | 1012.9 |
| 20260510003211 | 86 | 321 | 2.0 | 4.0 | 0.00 | 0.00 | 0.00 | 60 | 1012.7 |
| 20260510001729 | 86 | 305 | 1.0 | 4.0 | 0.00 | 0.00 | 0.00 | 60 | 1012.5 |
| 20260510000728 | 87 | 308 | 3.0 | 9.0 | 0.00 | 0.00 | 0.00 | 58 | 1012.2 |
| 20260509235729 | 87 | 309 | 4.0 | 10.0 | 0.00 | 0.00 | 0.00 | 57 | 1012.1 |
| 20260509234729 | 88 | 300 | 4.0 | 8.0 | 0.00 | 0.00 | 0.00 | 56 | 1011.9 |
| 20260509233729 | 89 | 309 | 5.0 | 11.0 | 0.00 | 0.00 | 0.00 | 55 | 1011.8 |
| 20260509232725 | 90 | 310 | 5.0 | 13.0 | 0.00 | 0.00 | 0.00 | 53 | 1011.6 |
| 20260509231725 | 91 | 274 | 5.0 | 12.0 | 0.00 | 0.00 | 0.00 | 52 | 1011.5 |
| 20260509230709 | 92 | 282 | 6.0 | 14.0 | 0.00 | 0.00 | 0.00 | 50 | 1011.4 |
| 20260509225710 | 92 | 275 | 5.0 | 11.0 | 0.00 | 0.00 | 0.00 | 51 | 1011.3 |
| 20260509224711 | 92 | 281 | 5.0 | 11.0 | 0.00 | 0.00 | 0.00 | 51 | 1011.1 |
| 20260509223710 | 93 | 235 | 5.0 | 11.0 | 0.00 | 0.00 | 0.00 | 51 | 1011.0 |
| 20260509222709 | 93 | 294 | 5.0 | 11.0 | 0.00 | 0.00 | 0.00 | 51 | 1011.0 |
| 20260509221713 | 93 | 273 | 4.0 | 9.0 | 0.00 | 0.00 | 0.00 | 52 | 1011.0 |